TimeCDT,TemperatureF,Dew PointF,Humidity,Sea Level PressureIn,VisibilityMPH,Wind Direction,Wind SpeedMPH,Gust SpeedMPH,PrecipitationIn,Events,Conditions,WindDirDegrees,DateUTC
12:32 AM,35.6,28.4,75,30.24,10.0,WNW,10.4,-,N/A,,Overcast,300,2012-10-26 05:32:00
12:53 AM,35.6,26.6,70,30.24,10.0,WNW,12.7,-,N/A,,Overcast,290,2012-10-26 05:53:00
1:12 AM,35.6,26.6,70,30.24,10.0,NW,13.8,19.6,N/A,,Overcast,310,2012-10-26 06:12:00
1:32 AM,35.6,26.6,70,30.25,10.0,WNW,12.7,-,N/A,,Overcast,300,2012-10-26 06:32:00
1:53 AM,35.6,26.6,70,30.25,10.0,WNW,15.0,23.0,N/A,,Mostly Cloudy,300,2012-10-26 06:53:00
2:12 AM,33.8,26.6,75,30.24,10.0,WNW,17.3,20.7,N/A,,Mostly Cloudy,290,2012-10-26 07:12:00
2:32 AM,35.6,24.8,65,30.24,10.0,WNW,24.2,31.1,N/A,,Overcast,300,2012-10-26 07:32:00
2:53 AM,35.6,26.6,70,30.25,10.0,WNW,16.1,25.3,N/A,,Overcast,300,2012-10-26 07:53:00
3:32 AM,35.6,26.6,70,30.26,10.0,WNW,13.8,19.6,N/A,,Overcast,290,2012-10-26 08:32:00
3:53 AM,33.8,26.6,75,30.26,10.0,WNW,13.8,19.6,N/A,,Overcast,290,2012-10-26 08:53:00
4:12 AM,33.8,26.6,75,30.27,10.0,WNW,11.5,-,N/A,,Scattered Clouds,290,2012-10-26 09:12:00
4:32 AM,33.8,24.8,70,30.27,10.0,WNW,17.3,-,N/A,,Clear,290,2012-10-26 09:32:00
4:53 AM,33.8,26.6,75,30.28,10.0,WNW,11.5,-,N/A,,Scattered Clouds,290,2012-10-26 09:53:00
5:32 AM,35.6,26.6,70,30.30,10.0,WNW,17.3,-,N/A,,Overcast,290,2012-10-26 10:32:00
5:53 AM,35.6,26.6,70,30.31,10.0,West,15.0,18.4,N/A,,Overcast,280,2012-10-26 10:53:00
6:12 AM,35.6,24.8,65,30.31,10.0,West,17.3,23.0,N/A,,Overcast,280,2012-10-26 11:12:00
6:32 AM,35.6,24.8,65,30.32,10.0,WNW,16.1,21.9,N/A,,Overcast,290,2012-10-26 11:32:00
6:53 AM,33.8,24.8,70,30.33,10.0,WNW,12.7,20.7,N/A,,Overcast,300,2012-10-26 11:53:00
7:12 AM,33.8,26.6,75,30.34,10.0,West,8.1,-,N/A,,Overcast,280,2012-10-26 12:12:00
7:32 AM,33.8,26.6,75,30.34,10.0,WNW,11.5,-,N/A,,Overcast,290,2012-10-26 12:32:00
7:53 AM,33.8,26.6,75,30.34,10.0,WNW,12.7,20.7,N/A,,Overcast,290,2012-10-26 12:53:00
8:12 AM,33.8,26.6,75,30.36,10.0,West,12.7,-,N/A,,Overcast,280,2012-10-26 13:12:00
8:32 AM,33.8,24.8,70,30.37,10.0,West,12.7,-,N/A,,Overcast,280,2012-10-26 13:32:00
8:53 AM,33.8,26.6,75,30.38,10.0,West,11.5,-,N/A,,Overcast,270,2012-10-26 13:53:00
9:12 AM,35.6,26.6,70,30.39,10.0,West,11.5,-,N/A,,Overcast,280,2012-10-26 14:12:00
9:32 AM,35.6,24.8,65,30.39,10.0,WNW,15.0,23.0,N/A,,Overcast,300,2012-10-26 14:32:00
9:53 AM,35.6,24.8,65,30.39,10.0,WNW,11.5,20.7,N/A,,Overcast,290,2012-10-26 14:53:00
10:12 AM,35.6,26.6,70,30.39,10.0,WNW,13.8,-,N/A,,Overcast,290,2012-10-26 15:12:00
10:32 AM,35.6,24.8,65,30.39,10.0,WNW,11.5,17.3,N/A,,Overcast,300,2012-10-26 15:32:00
10:52 AM,35.6,24.8,65,30.39,10.0,West,16.1,-,N/A,,Overcast,280,2012-10-26 15:52:00
11:12 AM,35.6,24.8,65,30.39,10.0,West,16.1,20.7,N/A,,Overcast,280,2012-10-26 16:12:00
11:32 AM,35.6,24.8,65,30.40,10.0,WNW,15.0,23.0,N/A,,Overcast,290,2012-10-26 16:32:00
11:52 AM,35.6,24.8,65,30.39,10.0,West,18.4,21.9,N/A,,Overcast,280,2012-10-26 16:52:00
12:13 PM,35.6,24.8,65,30.39,10.0,NW,15.0,-,N/A,,Overcast,310,2012-10-26 17:13:00
12:32 PM,37.4,24.8,60,30.39,10.0,WNW,13.8,19.6,N/A,,Overcast,290,2012-10-26 17:32:00
12:52 PM,37.4,23.0,56,30.38,10.0,WNW,15.0,21.9,N/A,,Overcast,290,2012-10-26 17:52:00
1:13 PM,35.6,24.8,65,30.39,10.0,WNW,13.8,-,N/A,,Overcast,300,2012-10-26 18:13:00
1:32 PM,35.6,24.8,65,30.38,10.0,West,16.1,20.7,N/A,,Overcast,280,2012-10-26 18:32:00
1:52 PM,37.4,24.8,60,30.38,10.0,West,18.4,23.0,N/A,,Overcast,280,2012-10-26 18:52:00
2:13 PM,37.4,23.0,56,30.37,10.0,WNW,11.5,-,N/A,,Overcast,290,2012-10-26 19:13:00
2:32 PM,37.4,23.0,56,30.37,10.0,West,16.1,23.0,N/A,,Overcast,270,2012-10-26 19:32:00
2:52 PM,37.4,23.0,56,30.37,10.0,WNW,17.3,-,N/A,,Overcast,290,2012-10-26 19:52:00
3:13 PM,37.4,23.0,56,30.37,10.0,West,15.0,-,N/A,,Overcast,280,2012-10-26 20:13:00
3:32 PM,37.4,24.8,60,30.36,10.0,West,16.1,-,N/A,,Overcast,280,2012-10-26 20:32:00
3:52 PM,37.4,24.8,60,30.36,10.0,WNW,13.8,18.4,N/A,,Overcast,290,2012-10-26 20:52:00
4:13 PM,37.4,24.8,60,30.36,10.0,West,12.7,-,N/A,,Overcast,280,2012-10-26 21:13:00
4:32 PM,35.6,24.8,65,30.36,10.0,West,12.7,-,N/A,,Overcast,270,2012-10-26 21:32:00
4:52 PM,35.6,26.6,70,30.36,10.0,West,11.5,-,N/A,,Overcast,260,2012-10-26 21:52:00
5:13 PM,35.6,26.6,70,30.36,10.0,West,9.2,-,N/A,,Overcast,270,2012-10-26 22:13:00
5:32 PM,35.6,26.6,70,30.36,10.0,West,9.2,-,N/A,,Overcast,270,2012-10-26 22:32:00
5:53 PM,35.6,26.6,70,30.35,10.0,West,9.2,-,N/A,,Overcast,270,2012-10-26 22:53:00
6:12 PM,35.6,26.6,70,30.35,10.0,West,9.2,-,N/A,,Overcast,270,2012-10-26 23:12:00
6:32 PM,35.6,26.6,70,30.35,10.0,West,11.5,-,N/A,,Overcast,270,2012-10-26 23:32:00
6:53 PM,35.6,26.6,70,30.36,10.0,West,6.9,-,N/A,,Overcast,270,2012-10-26 23:53:00
7:12 PM,35.6,26.6,70,30.36,10.0,West,8.1,-,N/A,,Overcast,260,2012-10-27 00:12:00
7:33 PM,33.8,26.6,75,30.36,10.0,West,8.1,-,N/A,,Overcast,270,2012-10-27 00:33:00
7:53 PM,33.8,26.6,75,30.36,10.0,West,8.1,-,N/A,,Overcast,270,2012-10-27 00:53:00
8:12 PM,33.8,26.6,75,30.36,10.0,West,5.8,-,N/A,,Overcast,270,2012-10-27 01:12:00
8:33 PM,33.8,26.6,75,30.36,10.0,West,9.2,-,N/A,,Overcast,260,2012-10-27 01:33:00
8:53 PM,33.8,24.8,70,30.36,10.0,West,8.1,-,N/A,,Overcast,270,2012-10-27 01:53:00
9:12 PM,33.8,23.0,65,30.35,10.0,West,9.2,-,N/A,,Overcast,260,2012-10-27 02:12:00
9:33 PM,33.8,24.8,70,30.35,10.0,WSW,5.8,-,N/A,,Overcast,250,2012-10-27 02:33:00
9:52 PM,32.0,24.8,75,30.35,10.0,West,5.8,-,N/A,,Overcast,260,2012-10-27 02:52:00
10:33 PM,32.0,24.8,75,30.35,10.0,West,5.8,-,N/A,,Overcast,260,2012-10-27 03:33:00
10:52 PM,32.0,24.8,75,30.35,10.0,WSW,6.9,-,N/A,,Overcast,250,2012-10-27 03:52:00
11:12 PM,33.8,23.0,65,30.35,10.0,SW,6.9,-,N/A,,Overcast,230,2012-10-27 04:12:00
11:33 PM,33.8,23.0,65,30.35,10.0,WSW,6.9,-,N/A,,Overcast,240,2012-10-27 04:33:00
11:52 PM,33.8,24.8,70,30.35,10.0,SW,4.6,-,N/A,,Overcast,220,2012-10-27 04:52:00